Miscellaneous Local Product
Issued by NWS Hastings, NE

Home | Current Version | Previous Version | Graphics & Text | Print | Product List | Glossary On
Versions: 1 2 3 4 5 6 7 8 9 10 11 12 13 14 15 16 17 18 19 20 21 22 23 24 25 26 27 28 29 30 31 32 33 34 35 36 37 38 39 40 41 42 43 44 45 46 47 48 49 50
000
AXUS43 KGID 261602
MISGRI

GID CWA HOURLY WEATHER ROUNDUP
NATIONAL WEATHER SERVICE HASTINGS NE
1100 AM CDT FRI AUG 26 2016

NOTE: "FAIR" INDICATES FEW OR NO CLOUDS BELOW 12,000 FEET WITH NO
SIGNIFICANT WEATHER AND/OR OBSTRUCTIONS TO VISIBILITY.

...SOUTH CENTRAL NEBRASKA...

CITY           SKY/WX    TMP DP  RH WIND       PRES   REMARKS
GRAND ISLAND   PTSUNNY   67  57  70 E9        30.15F
HASTINGS       CLOUDY    66  57  72 E10       30.14F
KEARNEY        CLOUDY    66  57  72 E6        30.15R
ORD            CLOUDY    68  53  58 E9        30.15F
YORK           LGT RAIN  66  59  77 E13       30.13F
AURORA         CLOUDY    65  62  89 E7        30.13F
LEXINGTON      CLOUDY    65  57  75 E7        30.16F
HOLDREGE       HAZE      65  59  82 E8        30.15S VSB 1
HEBRON         CLOUDY    67  62  84 E7        30.12R

...NEBRASKA PANHANDLE...

CITY           SKY/WX    TMP DP  RH WIND       PRES   REMARKS
CHADRON        CLOUDY    58  55  90 N6        30.13S
ALLIANCE       LGT RAIN  57  53  86 SE14      30.12F
SCOTTSBLUFF    PTSUNNY   60  56  86 VRB5      30.12S
SIDNEY         HVY RAIN  58  56  93 S14       30.17R FOG

...WESTERN AND NORTH CENTRAL NEBRASKA...

CITY           SKY/WX    TMP DP  RH WIND       PRES   REMARKS
VALENTINE      CLOUDY    66  53  63 S13       30.17F
AINSWORTH      MOSUNNY   68  56  65 S8        30.17F
ONEILL         CLOUDY    71  53  52 SE8       30.17S
BROKEN BOW     CLOUDY    65  57  75 SE8       30.16F
IMPERIAL       CLOUDY    68  55  63 SE17      30.14F
NORTH PLATTE   CLOUDY    67  58  72 SE8       30.15F
MCCOOK         CLOUDY    66  59  78 E8        30.15F

...EASTERN NEBRASKA...

CITY           SKY/WX    TMP DP  RH WIND       PRES   REMARKS
NORFOLK        CLOUDY    65  58  78 SE6       30.16S
SO SIOUX CITY  CLOUDY    65  58  78 S5        30.16F
TEKAMAH        CLOUDY    66  59  78 CALM      30.15S
COLUMBUS       PTSUNNY   64  54  68 E8        30.15F
ALBION         CLOUDY    67  57  71 SE10      30.16F
OMAHA EPPLEY   CLOUDY    69  60  73 E10       30.13F
OFFUTT AFB     CLOUDY    66  62  86 E10       30.13S
MILLARD        PTSUNNY   67  61  78 SE10      30.13F
LINCOLN        CLOUDY    69  61  75 NE9       30.12F
NEBRASKA CITY  LGT RAIN  63  63 100 E10       30.13S
BEATRICE       CLOUDY    64  61  89 E12       30.12R
FALLS CITY     CLOUDY    67  64  90 E8        30.11F

...NORTHERN KANSAS...

CITY           SKY/WX    TMP DP  RH WIND       PRES   REMARKS
GOODLAND       MOSUNNY   66  57  72 SE9       30.15F
HILL CITY      CLOUDY    66  60  81 CALM      30.14S
NORTON         SUNNY     68  57  68 E5        30.14S
SMITH CENTER   MOSUNNY   66  61  82 NE8       30.12F
BELOIT         CLOUDY    64  61  88 NE7       30.10S
HAYS           CLOUDY    66  55  68 NE7       30.11S
RUSSELL        LGT RAIN  65  63  93 N6        30.09S
CONCORDIA      CLOUDY    65  63  93 E5        30.10F
SALINA         CLOUDY    69  66  90 CALM      30.10R
TOPEKA         MOSUNNY   75  69  81 E8        30.09S



USA.gov is the U.S. government's official web portal to all federal, state and local government web resources and services.